Station 41033 - Fripp Nearshore, SC (FRP2) Image indicating link to RSS feed of recent meteorological observations for station 41033


Conditions at 41033 as of
(2:08 am EDT)
0608 GMT on 06/21/2024:
     

Click on the graph icon in the table below to see a time series plot of the last five days of that observation.

5-day plot - Wind Direction Wind Direction (WDIR):ENE ( 60 deg true )
5-day plot - Wind Speed Wind Speed (WSPD): 17.5 kts
5-day plot - Wind Gust Wind Gust (GST): 23.3 kts
5-day plot - Atmospheric Pressure Atmospheric Pressure (PRES):30.19 in
5-day plot - Air Temperature Air Temperature (ATMP): 79.5 °F
5-day plot - Water Temperature Water Temperature (WTMP): 81.3 °F
5-day plot - Dew Point Dew Point (DEWP): 72.7 °F
5-day plot - Heat Index Heat Index (HEAT): 83.1 °F
5-day plot - Wind Speed at 10 Meters Wind Speed at 10 meters (WSPD10M): 19.4 kts
5-day plot - Wind Speed at 20 Meters Wind Speed at 20 meters (WSPD20M): 21.4 kts
5-day plot -  Wind Speed, Wind Gust and Atmospheric Pressure Combined plot of Wind Speed, Gust, and Air Pressure
Previous observations
TIME
(EDT)
5-day plot - Wind Direction
WDIR
 
5-day plot - Wind Speed
WSPD
kts
5-day plot - Wind Gust
GST
kts
5-day plot - Wave Height
WVHT
ft
5-day plot - Dominant Wave Period
DPD
sec
5-day plot - Average Wave Period
APD
sec
5-day plot - Mean Wave Direction
MWD
 
5-day plot - Atmospheric Pressure
PRES
in
5-day plot - Pressure Tendency
PTDY
in
5-day plot - Air Temperature
ATMP
°F
5-day plot - Water Temperature
WTMP
°F
5-day plot - Dew Point
DEWP
°F
5-day plot - Salinity
SAL
psu
5-day plot - Visibility
VIS
nmi
5-day plot - Tide (above MLLW)
TIDE
ft
2024-06-21 01:08 amENE 15.5 21.4----30.20- 79.3 81.3 72.0---
2024-06-21 12:08 amENE 17.5 23.3----30.20- 79.5 81.3 72.1---
2024-06-20 11:08 pmENE 19.4 21.4----30.21- 79.9 81.1 71.8---
2024-06-20 10:08 pmENE 17.5 25.3----30.21- 79.9 81.3 72.0---
2024-06-20 09:08 pmENE 19.4 25.3----30.20- 79.5 81.3 73.2---
2024-06-20 08:08 pmENE 17.5 21.4----30.18- 79.3 81.5 73.6---
2024-06-20 07:08 pm E 17.5 25.3----30.18- 79.3 81.5 73.4---
2024-06-20 06:08 pmENE 17.5 27.2----30.20- 79.9 81.5 73.0---
2024-06-20 05:08 pm E 17.5 21.4----30.18- 79.9 81.7 72.5---
2024-06-20 04:08 pm E 15.5 23.3----30.20- 80.2 81.9 73.0---
2024-06-20 03:08 pm E 17.5 23.3----30.21- 80.2 81.9 72.3---
2024-06-20 02:08 pm E 17.5 21.4----30.22- 80.1 81.9 71.6---
2024-06-20 01:08 pmENE 13.6 23.3----30.24- 80.4 81.7 72.9---
2024-06-20 12:08 pmENE 15.5 21.4----30.25- 80.1 81.7 71.6---
2024-06-20 11:08 amENE 13.6 21.4----30.28- 80.2 81.7 72.9---
2024-06-20 10:08 amENE 15.5 21.4----30.28- 80.1 81.7 72.5---
2024-06-20 09:08 am NE 15.5 21.4----30.21- 79.9 81.5 72.5---
2024-06-20 08:08 amENE 13.6 17.5----30.20- 79.7 81.5 72.1---
2024-06-20 07:08 amENE 15.5 17.5----30.18- 79.5 81.5 72.1---
2024-06-20 06:08 amENE 15.5 21.4----30.16- 79.2 81.7 73.0---
2024-06-20 05:08 amENE 13.6 19.4----30.19- 79.5 81.7 72.7---
2024-06-20 04:08 am E 13.6 19.4----30.19- 79.9 81.9 71.8---
2024-06-20 03:08 am E 15.5 19.4----30.20- 79.9 81.9 72.0---